Location: Kernascl�den
(48.0062°N, 3.3198°W)
Time: 17:02:40
(UTC+00:00)

ATLAS 5 CENTAUR R/B - Pass Details

Date: 21 January 2021
Orbit: 511 x 1147 km, 63.3° (Epoch: 16 February)

Event Time Altitude Azimuth Distance (km) Brightness Sun altitude
Rises 18:19:15 0° 245° (WSW) 2,675 6.6 -13.6°
Reaches altitude 10° 18:21:27 10° 255° (WSW) 1,834 5.4 -14.0°
Maximum altitude 18:25:14 36° 323° (NW) 955 2.7 -14.6°
Enters shadow 18:29:05 13° 28° (NNE) 1,917 3.7 -15.2°
